Weather History for KCNI - November, 2013

Change the Weather History Date:

Tuesday, November 5, 2013

  Actual Average (KGVL) Record (KGVL)
Temperature  
Mean Temperature 53 °F 56 °F  
Max Temperature 64 °F 66 °F 79 °F (1961)
Min Temperature 42 °F 46 °F 24 °F (1937)
Degree Days  
Heating Degree Days 12 9  
Month to date heating degree days 44  
Since 1 July heating degree days 202  
Growing Degree Days 3 (Base 50)    
Moisture  
Dew Point 28 °F    
Average Humidity 43    
Maximum Humidity 62    
Minimum Humidity 18    
Precipitation  
Precipitation 0.00 in 0.12 in 4.12 in (1977)
Month to date precipitation 0.54  
Year to date precipitation 45.55  
Sea Level Pressure  
Sea Level Pressure 30.41 in    
Wind  
Wind Speed 6 mph (ENE)    
Max Wind Speed 13 mph    
Max Gust Speed 21 mph    
Visibility 10 miles    
Events      
T = Trace of Precipitation, MM = Missing Value Source: NWS Daily Summary

Daily Weather History Graph

Daily Weather History Graph

Search for Another Location

Airport or City:

Trip Planner

Search our weather history database for the weather conditions in past years. The results will help you decide how hot, cold, wet, or windy it might be!

Date:

Astronomy

Nov. 05, 2013 Rise Set
Actual Time 7:01 AM EST 5:40 PM EST
Civil Twilight 6:35 AM EST 6:06 PM EST
Nautical Twilight 6:05 AM EST 6:36 PM EST
Astronomical Twilight 5:36 AM EST 7:05 PM EST
Moon 9:11 AM EST (11/5) 7:44 PM EST (11/5)
Length of Visible Light 11h 31m
Length of Day
10h 39m
Waxing Crescent, 6% of the Moon is Illuminated
Nov 5
Waxing Crescent
Nov 10
First Quarter
Nov 17
Full
Nov 25
Last Quarter
Dec 2
New

Hourly Weather History & Observations

Time (EST) Temp. Windchill Dew Point Humidity Pressure Visibility Wind Dir Wind Speed Gust Speed Precip Events Conditions
12:15 AM 44.6 °F 43.1 °F 32.0 °F 61% 30.43 in 10.0 mi ENE 3.5 mph - N/A   Clear
12:35 AM 44.6 °F 41.4 °F 32.0 °F 61% 30.43 in 10.0 mi ENE 5.8 mph - N/A   Clear
12:55 AM 44.6 °F 42.2 °F 32.0 °F 61% 30.44 in 10.0 mi ENE 4.6 mph - N/A   Clear
1:15 AM 44.6 °F 42.2 °F 32.0 °F 61% 30.43 in 10.0 mi ENE 4.6 mph - N/A   Clear
1:35 AM 44.6 °F 41.4 °F 32.0 °F 61% 30.43 in 10.0 mi ENE 5.8 mph - N/A   Clear
1:55 AM 44.6 °F 43.1 °F 32.0 °F 61% 30.44 in 10.0 mi ENE 3.5 mph - N/A   Clear
2:15 AM 44.6 °F 43.1 °F 32.0 °F 61% 30.44 in 10.0 mi ENE 3.5 mph - N/A   Clear
2:35 AM 44.6 °F 41.4 °F 32.0 °F 61% 30.44 in 10.0 mi ENE 5.8 mph - N/A   Clear
2:55 AM 44.6 °F 40.7 °F 32.0 °F 61% 30.44 in 10.0 mi ENE 6.9 mph - N/A   Clear
3:15 AM 44.6 °F 40.7 °F 32.0 °F 61% 30.44 in 10.0 mi ENE 6.9 mph - N/A   Clear
3:35 AM 44.6 °F 40.2 °F 32.0 °F 61% 30.45 in 10.0 mi ENE 8.1 mph - N/A   Clear
3:55 AM 44.6 °F 40.7 °F 32.0 °F 61% 30.44 in 10.0 mi ENE 6.9 mph - N/A   Clear
4:15 AM 44.6 °F 40.2 °F 32.0 °F 61% 30.44 in 10.0 mi ENE 8.1 mph - N/A   Clear
4:35 AM 44.6 °F 40.7 °F 32.0 °F 61% 30.44 in 10.0 mi East 6.9 mph - N/A   Clear
4:55 AM 44.6 °F 40.2 °F 32.0 °F 61% 30.44 in 10.0 mi ENE 8.1 mph - N/A   Clear
5:15 AM 44.6 °F 39.7 °F 30.2 °F 57% 30.44 in 10.0 mi ENE 9.2 mph - N/A   Clear
5:35 AM 44.6 °F 41.4 °F 30.2 °F 57% 30.44 in 10.0 mi ENE 5.8 mph - N/A   Clear
5:55 AM 42.8 °F 40.1 °F 30.2 °F 61% 30.45 in 10.0 mi East 4.6 mph - N/A   Clear
6:15 AM 42.8 °F 38.0 °F 30.2 °F 61% 30.45 in 10.0 mi East 8.1 mph - N/A   Clear
6:35 AM 42.8 °F 39.3 °F 30.2 °F 61% 30.45 in 10.0 mi East 5.8 mph - N/A   Clear
6:55 AM 42.8 °F 39.3 °F 28.4 °F 57% 30.45 in 10.0 mi ENE 5.8 mph - N/A   Clear
7:15 AM 42.8 °F 38.6 °F 28.4 °F 57% 30.45 in 10.0 mi ENE 6.9 mph - N/A   Clear
7:35 AM 42.8 °F 41.1 °F 28.4 °F 57% 30.47 in 10.0 mi East 3.5 mph - N/A   Clear
7:55 AM 42.8 °F 38.0 °F 28.4 °F 57% 30.47 in 10.0 mi ENE 8.1 mph - N/A   Clear
8:15 AM 42.8 °F 38.6 °F 28.4 °F 57% 30.47 in 10.0 mi East 6.9 mph - N/A   Clear
8:35 AM 44.6 °F 40.2 °F 28.4 °F 53% 30.47 in 10.0 mi ENE 8.1 mph - N/A   Clear
8:55 AM 46.4 °F 42.4 °F 28.4 °F 50% 30.47 in 10.0 mi ENE 8.1 mph 16.1 mph N/A   Clear
9:15 AM 46.4 °F 40.7 °F 28.4 °F 50% 30.47 in 10.0 mi ENE 12.7 mph 20.7 mph N/A   Clear
9:35 AM 50.0 °F - 26.6 °F 40% 30.47 in 10.0 mi ENE 5.8 mph 19.6 mph N/A   Clear
9:55 AM 50.0 °F - 26.6 °F 40% 30.48 in 10.0 mi East 8.1 mph - N/A   Clear
10:15 AM 51.8 °F - 26.6 °F 38% 30.47 in 10.0 mi East 8.1 mph 19.6 mph N/A   Clear
10:35 AM 51.8 °F - 26.6 °F 38% 30.47 in 10.0 mi ENE 11.5 mph 17.3 mph N/A   Clear
10:55 AM 55.4 °F - 24.8 °F 31% 30.46 in 10.0 mi ENE 8.1 mph 17.3 mph N/A   Clear
11:15 AM 53.6 °F - 24.8 °F 33% 30.46 in 10.0 mi ENE 9.2 mph 17.3 mph N/A   Clear
11:35 AM 55.4 °F - 23.0 °F 29% 30.46 in 10.0 mi ENE 6.9 mph 17.3 mph N/A   Clear
11:55 AM 55.4 °F - 23.0 °F 29% 30.45 in 10.0 mi ESE 11.5 mph - N/A   Scattered Clouds
12:15 PM 55.4 °F - 23.0 °F 29% 30.44 in 10.0 mi ESE 10.4 mph - N/A   Mostly Cloudy
12:35 PM 59.0 °F - 21.2 °F 23% 30.43 in 10.0 mi East 5.8 mph - N/A   Overcast
12:55 PM 60.8 °F - 21.2 °F 22% 30.43 in 10.0 mi East 6.9 mph - N/A   Mostly Cloudy
1:15 PM 60.8 °F - 23.0 °F 23% 30.42 in 10.0 mi East 5.8 mph - N/A   Mostly Cloudy
1:35 PM 60.8 °F - 21.2 °F 22% 30.41 in 10.0 mi ENE 6.9 mph - N/A   Overcast
1:55 PM 62.6 °F - 21.2 °F 20% 30.40 in 10.0 mi East 9.2 mph - N/A   Mostly Cloudy
2:15 PM 62.6 °F - 19.4 °F 19% 30.39 in 10.0 mi ENE 8.1 mph - N/A   Scattered Clouds
2:35 PM 64.4 °F - 19.4 °F 18% 30.38 in 10.0 mi East 9.2 mph - N/A   Clear
2:55 PM 64.4 °F - 21.2 °F 19% 30.37 in 10.0 mi ENE 4.6 mph - N/A   Clear
3:15 PM 62.6 °F - 21.2 °F 20% 30.36 in 10.0 mi East 8.1 mph - N/A   Clear
3:35 PM 64.4 °F - 19.4 °F 18% 30.36 in 10.0 mi East 6.9 mph - N/A   Clear
3:55 PM 62.6 °F - 21.2 °F 20% 30.36 in 10.0 mi East 4.6 mph - N/A   Clear
4:15 PM 62.6 °F - 21.2 °F 20% 30.35 in 10.0 mi ESE 6.9 mph - N/A   Clear
4:35 PM 60.8 °F - 23.0 °F 23% 30.36 in 10.0 mi East 5.8 mph - N/A   Clear
4:55 PM 60.8 °F - 21.2 °F 22% 30.35 in 10.0 mi East 8.1 mph - N/A   Clear
5:15 PM 60.8 °F - 24.8 °F 25% 30.35 in 10.0 mi East 6.9 mph - N/A   Clear
5:35 PM 59.0 °F - 26.6 °F 29% 30.35 in 10.0 mi East 4.6 mph - N/A   Clear
5:55 PM 59.0 °F - 24.8 °F 27% 30.35 in 10.0 mi ESE 8.1 mph - N/A   Clear
6:15 PM 57.2 °F - 26.6 °F 31% 30.35 in 10.0 mi East 4.6 mph - N/A   Clear
6:35 PM 55.4 °F - 26.6 °F 33% 30.35 in 10.0 mi East 4.6 mph - N/A   Clear
6:55 PM 55.4 °F - 26.6 °F 33% 30.36 in 10.0 mi ENE 4.6 mph - N/A   Clear
7:15 PM 53.6 °F - 26.6 °F 35% 30.36 in 10.0 mi ENE 6.9 mph - N/A   Clear
7:35 PM 53.6 °F - 24.8 °F 33% 30.36 in 10.0 mi East 5.8 mph - N/A   Clear
7:55 PM 53.6 °F - 26.6 °F 35% 30.37 in 10.0 mi East 4.6 mph - N/A   Clear
8:15 PM 53.6 °F - 26.6 °F 35% 30.37 in 10.0 mi East 5.8 mph - N/A   Clear
8:35 PM 51.8 °F - 28.4 °F 41% 30.37 in 10.0 mi East 4.6 mph - N/A   Clear
8:55 PM 51.8 °F - 30.2 °F 44% 30.38 in 10.0 mi ENE 6.9 mph - N/A   Clear
9:15 PM 51.8 °F - 32.0 °F 47% 30.38 in 10.0 mi East 6.9 mph - N/A   Clear
9:35 PM 51.8 °F - 32.0 °F 47% 30.38 in 10.0 mi ENE 5.8 mph - N/A   Clear
9:55 PM 51.8 °F - 32.0 °F 47% 30.38 in 10.0 mi ENE 6.9 mph - N/A   Clear
10:15 PM 51.8 °F - 33.8 °F 50% 30.38 in 10.0 mi East 6.9 mph - N/A   Clear
10:35 PM 51.8 °F - 33.8 °F 50% 30.38 in 10.0 mi East 6.9 mph - N/A   Scattered Clouds
10:55 PM 50.0 °F - 35.6 °F 58% 30.37 in 10.0 mi ENE 8.1 mph - N/A   Clear
11:15 PM 50.0 °F - 35.6 °F 58% 30.36 in 10.0 mi ENE 5.8 mph - N/A   Clear
11:35 PM 50.0 °F - 37.4 °F 62% 30.36 in 10.0 mi East 5.8 mph - N/A   Clear
11:55 PM 50.0 °F - 37.4 °F 62% 30.35 in 10.0 mi East 8.1 mph - N/A   Clear